Regional Weather Roundup
Issued by NWS San Diego, CA

Home | Current Version | Previous Version | Text Only | Print | Product List | Glossary On
Versions: 1 2 3 4 5 6 7 8 9 10 11 12 13 14 15 16 17 18 19 20 21 22 23 24 25 26 27 28 29 30 31 32 33 34 35 36 37 38 39 40 41 42 43 44 45 46 47 48 49 50
000
ASUS46 KSGX 301611
RWRSGX

SAN DIEGO HOURLY WEATHER ROUNDUP
NATIONAL WEATHER SERVICE SAN DIEGO CA
900 AM PDT SUN AUG 30 2015

NOTE: "FAIR" INDICATES FEW OR NO CLOUDS BELOW 12,000 FEET WITH NO
SIGNIFICANT WEATHER AND/OR OBSTRUCTIONS TO VISIBILITY.

CAZ042-043-060-061-PZZ750-775-301700-

GREATER SAN DIEGO AREA

CITY           SKY/WX    TMP DP  RH WIND       PRES   REMARKS
LINDBERGH FLD  MOSUNNY   75  68  78 S5        29.92R
POINT LOMA       N/A     79  69  71 SW5         N/A
CHULA VISTA      N/A     78  72  81 CALM      29.84S
IMPERIAL BEACH PTSUNNY  N/A N/A N/A W9        29.92R
BROWN FIELD    SUNNY     77  67  71 VRB3      29.92S
MIRAMAR MCAS   MOSUNNY   81  65  58 VRB3      29.92S
MONTGOMERY FLD SUNNY     77  66  68 S5        29.92R

$$

NORTH SAN DIEGO COUNTY

CITY           SKY/WX    TMP DP  RH WIND       PRES   REMARKS
CAMP PENDLETON SUNNY     77  65  66 CALM      29.90S
OCEANSIDE AP   SUNNY     77  66  68 CALM      29.90S
OCEANSIDE HBR    N/A     75  70  85 SW7       29.93R
VISTA            N/A     76  68  78 SW1       29.88S
CARLSBAD       SUNNY     76  68  76 S5        29.91R
DEL MAR          N/A     74  71  89 CALM      29.93S
FALLBROOK        N/A     77  70  80 SW3       29.88F
ESCONDIDO        N/A     80  66  61 SE5       29.91F
SAN MARCOS       N/A     78  66  67 CALM      29.88S
POWAY            N/A     82  66  58 CALM      29.90S

$$

EAST SAN DIEGO COUNTY

CITY           SKY/WX    TMP DP  RH WIND       PRES   REMARKS
RAMONA         SUNNY     81  55  40 CALM      29.95S
SANTEE LAKES     N/A     77  67  72 CALM      29.89S
LA MESA          N/A     76  69  80 CALM      29.84R
JAMUL            N/A     82  64  54 CALM      29.89S
DESCANSO N       N/A     81  55  40 CALM      29.76S
CAMPO            N/A     80  54  40 SW10      29.97F

$$

ORANGE COUNTY AND THE LOS ANGELES BASIN

CITY           SKY/WX    TMP DP  RH WIND       PRES   REMARKS
JOHN WAYNE AP  SUNNY     76  68  76 CALM      29.90S
LAGUNA BEACH     N/A     73  70  91 CALM      29.86S
LAKE FOREST FR   N/A     74  60  61 CALM      29.79R
SANTA ANA        N/A     74  70  86 SW2       29.85S
HUNTINGTON BCH   N/A     76  71  83 SW1       29.93S
LOS ALAMITOS   MOSUNNY   76  69  80 SE2       29.90S
FULLERTON      MOSUNNY   77  67  71 SW5       29.89F
LONG BEACH     MOSUNNY   76  68  76 VRB5      29.90S
L.A. AP        MOSUNNY   77  67  71 SE6       29.91R
L.A. DOWNTOWN  SUNNY     78  67  68 VRB3      29.90R

$$

THE INLAND EMPIRE

CITY           SKY/WX    TMP DP  RH WIND       PRES   REMARKS
CORONA         SUNNY     78  63  60 W5        29.92S
CHINO          MOSUNNY   80  63  55 W3        29.93S
ONTARIO        MOSUNNY   78  60  53 SW3       29.92S
RIVERSIDE AP   SUNNY     78  62  57 W5        29.92S
MORENO VALLEY    N/A     82  60  47 E3        29.90S
MARCH ARB      SUNNY     79  56  45 SE6       29.94F
HORSETHIEF CYN   N/A     78  56  45 E1        29.90F
PERRIS           N/A     78  59  52 S3        29.95S
MENIFEE          N/A     80  62  54 SE5       29.97F
HEMET EAST       N/A     76  52  41 CALM      29.88S
FRENCH VALLEY  FAIR      79  57  47 S6        29.94S
TEMECULA         N/A     74  60  60 CALM      29.90S

$$

SAN BERNARDINO AND RIVERSIDE COUNTY MOUNTAINS

CITY           SKY/WX    TMP DP  RH WIND       PRES   REMARKS
BIG BEAR AP    SUNNY     66  41  39 SW8G20    30.25S
ANGELUS OAKS     N/A     62  45  53 CALM      29.76S
PINE COVE        N/A     67  46  46 W2        29.84S

$$

SOUTHERN DESERT INCLUDING THE COACHELLA VALLEY

CITY           SKY/WX    TMP DP  RH WIND       PRES   REMARKS
PALM SPRINGS   SUNNY     93  55  27 CALM      29.82F
THOUSAND PALMS   N/A     97  54  23 NW6       29.77S
PALM DESERT      N/A     94  59  30 CALM      29.02F
THERMAL        SUNNY     97  54  23 NW3       29.75F HX  95
BLYTHE         SUNNY     93  58  30 E3        29.81R
IMPERIAL AP    SUNNY     98  52  21 SW7       29.78R HX  95
EL CENTRO NAS  SUNNY     99  48  17 SW8       29.80R HX  95
YUMA AZ        SUNNY     98  60  28 W6        29.80R HX  98
MEXICALI       SUNNY     93  55  27 CALM      29.80

$$

UPPER DESERT

CITY           SKY/WX    TMP DP  RH WIND       PRES   REMARKS
VICTORVILLE AP SUNNY     77  52  41 CALM      30.00S
APPLE VALLEY     N/A     78  52  40 CALM      30.04S
PALMDALE       SUNNY     76  55  48 CALM      29.99S
LANCASTER      SUNNY     81  54  39 NW10      29.98S
DAGGETT        SUNNY     86  50  28 W17       29.92S
29 PALMS N     SUNNY     86  50  28 CALM      29.99F
NEEDLES        SUNNY     98  44  15 E5        29.83S

$$

REGIONAL REPORTS

CITY           SKY/WX    TMP DP  RH WIND       PRES   REMARKS
SANTA BARBARA  PTSUNNY   77  66  68 SE6       29.88R
SANDBERG       MOSUNNY   73  51  46 VRB5      30.12S
LAS VEGAS NV   PTSUNNY   92  44  19 S8        29.86R
PHOENIX AZ     PTSUNNY   92  66  42 SE8       29.87S
TIJUANA        SUNNY     77  64  65 CALM      29.94S
ENSENADA NW      N/A     75  32  20 W2        29.88F

$$

OFFSHORE ISLANDS

CITY           SKY/WX    TMP DP  RH WIND       PRES   REMARKS
CATALINA ARPT  SUNNY     74  57  55 W5        29.97R
SAN NICOLAS IS SUNNY    N/A N/A N/A NW32G41   29.93S

$$

MARINE AND OFFSHORE BUOY REPORTS

STATION/POSITION SKY/WX   TEMP    WIND        PRES    SWELL
                          AIR SEA DIR/SP/G            HT/PER/DIR
                          (F)     (DEG/KT/KT) (MB)    (FT/S/D)
TANNER BANKS               68 70  320/ 23/ 27 1013.9R
S CLEMENTE BASIN           69 72  290/ 16/ 17 1012.7R   3/290/ 7
SO. S. ROSA ISLA           65 65  320/ 23/ 29 1012.9R   3/14
W. S. BARBARA CH           64 66  330/ 25/ 29 1013.1R   3/290/17
M. S. BARBARA CH           69 69  280/ 14/ 17 1012.3R
S. MONICA BASIN            71 73  310/  6/  8 1012.7R   5/270/ 6
S PEDRO CHANNEL               72                N/A     2/190/13
DANA POINT                    74                N/A     3/180/14
OCEANSIDE OFFSHR              75                N/A     2/210/14
TORREY PINES OTR              75                N/A     2/200/13
MISSION BAY BUOY              76                N/A     3/200/13
POINT LOMA SOUTH              73                N/A     3/200/14

$$



USA.gov is the U.S. government's official web portal to all federal, state and local government web resources and services.